This demonstration page uses our WeatherBlox Daily Observations layout. Learn more.

Left ArrowRight Arrow

Hourly Observations for April 22, 2022

Temp ( °F °C ) Dew Point ( °F °C ) Humidity (%) Winds ( mph kmh ) Pressure ( in mb ) Visibility ( mi km ) Precip ( " mm )
12:15 am 00:15 Cloudy 60 15.6 58 14.2 91 91 SE 17 28 29.84 1011 10 16 0.00 0.00
12:35 am 00:35 Cloudy 61 16 58 14.5 91 91 ESE 15 24 29.83 1010 10 16 0.00 0.00
12:55 am 00:55 Cloudy 61 16.2 58 14.7 91 91 SE 13 20 29.82 1010 10 16 0.00 0.00
1:15 am 01:15 Cloudy 62 16.7 59 15.1 90 90 ESE 16 26 29.82 1010 10 16 0.00 0.00
1:35 am 01:35 Cloudy 62 16.7 59 15.1 90 90 SE 14 22 29.82 1010 10 16 0.00 0.00
1:55 am 01:55 Cloudy 63 17.1 60 15.5 90 90 ESE 18 30 29.80 1009 10 16 0.00 0.00
2:15 am 02:15 Cloudy 63 17.2 60 15.5 90 90 ESE 15 24 29.79 1009 10 16 0.00 0.00
2:35 am 02:35 Cloudy 63 17.4 60 15.6 89 89 ESE 16 26 29.78 1008 10 16 0.00 0.00
2:55 am 02:55 Cloudy 64 18 61 16 88 88 SE 17 28 29.76 1008 10 16 0.00 0.00
3:15 am 03:15 Cloudy 65 18.2 61 16.2 88 88 SE 18 30 29.75 1008 10 16 0.00 0.00
3:35 am 03:35 Cloudy 65 18.4 61 16.3 88 88 SE 20 31 29.73 1007 10 16 0.00 0.00
3:55 am 03:55 Cloudy 65 18.6 62 16.5 88 88 SSE 22 35 29.72 1006 10 16 0.00 0.00
4:15 am 04:15 Cloudy 65 18.5 62 16.5 88 88 SSE 21 33 29.71 1006 10 16 0.00 0.00
4:35 am 04:35 Cloudy 65 18.4 62 16.5 89 89 SSE 24 39 29.70 1006 10 16 0.00 0.00
4:55 am 04:55 Cloudy 65 18.2 62 16.5 90 90 SSE 22 35 29.69 1006 10 16 0.00 0.00
5:15 am 05:15 Cloudy 65 18.2 62 16.5 90 90 SSE 20 31 29.69 1006 10 16 0.00 0.00
5:35 am 05:35 Cloudy 65 18.5 62 16.7 89 89 SSE 24 39 29.69 1005 10 16 0.00 0.00
5:55 am 05:55 Mostly Cloudy 66 18.7 62 16.9 89 89 SSE 22 35 29.69 1005 10 16 0.00 0.00
6:15 am 06:15 Cloudy 66 19 63 17 88 88 S 24 39 29.68 1005 10 16 0.00 0.00
6:35 am 06:35 Cloudy 66 19 63 17 88 88 S 22 35 29.68 1005 10 16 0.00 0.00
6:55 am 06:55 Cloudy 66 19 63 17 88 88 S 25 41 29.68 1005 10 16 0.00 0.00
7:15 am 07:15 Cloudy 66 19 63 17 88 88 S 25 41 29.68 1005 7 11 0.00 0.00
7:35 am 07:35 Cloudy 66 19 63 17 88 88 S 22 35 29.69 1005 7 11 0.00 0.00
7:55 am 07:55 Cloudy 66 19 63 17.1 89 89 S 22 35 29.69 1005 7 11 0.00 0.00
8:15 am 08:15 Cloudy 67 19.2 63 17.1 88 88 S 24 39 29.68 1005 7 11 0.00 0.00
8:35 am 08:35 Cloudy 67 19.6 63 17.2 86 86 S 26 43 29.67 1005 10 16 0.00 0.00
8:55 am 08:55 Mostly Cloudy 68 20.1 63 17.4 85 85 S 25 41 29.66 1004 10 16 0.00 0.00
9:15 am 09:15 Mostly Cloudy 69 20.7 63 17.4 81 81 S 29 46 29.65 1004 10 16 0.00 0.00
9:35 am 09:35 Mostly Cloudy 71 21.5 64 17.5 78 78 S 28 44 29.65 1004 10 16 0.00 0.00
9:55 am 09:55 Cloudy 72 22.4 64 17.5 74 74 SSW 28 44 29.63 1003 10 16 0.00 0.00
10:15 am 10:15 Mostly Cloudy 73 23 63 17.4 71 71 SSW 24 39 29.62 1003 10 16 0.00 0.00
10:35 am 10:35 Mostly Cloudy 75 24 63 17.3 66 66 S 28 44 29.61 1003 10 16 0.00 0.00
10:55 am 10:55 Partly Cloudy 77 25.1 63 17.3 62 62 S 29 46 29.59 1002 10 16 0.00 0.00
11:15 am 11:15 Partly Cloudy 79 25.9 62 16.8 57 57 SSW 26 43 29.58 1002 10 16 0.00 0.00
11:35 am 11:35 Sunny 81 27.4 62 16.4 51 51 SSW 29 46 29.56 1001 10 16 0.00 0.00
11:55 am 11:55 Sunny 82 28 61 16.1 48 48 SSW 28 44 29.55 1001 10 16 0.00 0.00
12:15 pm 12:15 Sunny 84 29 61 16 45 45 S 31 50 29.54 1000 10 16 0.00 0.00
12:35 pm 12:35 Sunny 85 29.6 61 16 44 44 S 32 52 29.51 999 10 16 0.00 0.00
12:55 pm 12:55 Sunny 87 30.3 60 15.5 41 41 S 28 44 29.50 999 10 16 0.00 0.00
1:15 pm 13:15 Sunny 87 30.3 59 15.1 40 40 S 32 52 29.49 999 10 16 0.00 0.00
1:35 pm 13:35 Sunny 87 30.7 60 15.6 40 40 S 32 52 29.46 998 10 16 0.00 0.00
1:55 pm 13:55 Sunny 87 30.8 59 15.2 39 39 S 40 65 29.45 997 10 16 0.00 0.00
2:15 pm 14:15 Sunny 88 31.2 60 15.4 38 38 S 33 54 29.43 997 10 16 0.00 0.00
2:35 pm 14:35 Sunny 88 30.9 59 15.2 39 39 S 35 56 29.43 997 10 16 0.00 0.00
2:55 pm 14:55 Sunny 88 31.3 60 15.5 38 38 S 39 63 29.41 996 10 16 0.00 0.00
3:15 pm 15:15 Sunny 88 31 60 15.5 39 39 S 36 57 29.40 996 10 16 0.00 0.00
3:35 pm 15:35 Sunny 88 31 59 15.1 38 38 S 40 65 29.39 995 10 16 0.00 0.00
3:55 pm 15:55 Sunny 87 30.7 59 14.8 38 38 S 38 61 29.38 995 7 11 0.00 0.00
4:15 pm 16:15 Sunny 88 31.2 58 14.4 36 36 S 40 65 29.37 995 10 16 0.00 0.00
4:35 pm 16:35 Sunny 87 30.7 58 14.3 37 37 S 40 65 29.36 994 10 16 0.00 0.00
4:55 pm 16:55 Sunny 87 30.7 56 13.3 34 34 S 40 65 29.36 994 10 16 0.00 0.00
5:15 pm 17:15 Sunny 87 30.5 57 14 37 37 S 44 70 29.36 994 10 16 0.00 0.00
5:35 pm 17:35 Sunny 87 30.3 57 13.9 37 37 S 35 56 29.35 994 7 11 0.00 0.00
5:55 pm 17:55 Sunny 86 29.9 57 14 38 38 S 41 67 29.34 994 10 16 0.00 0.00
6:15 pm 18:15 Sunny 85 29.5 58 14.3 39 39 S 40 65 29.34 994 10 16 0.00 0.00
6:35 pm 18:35 Sunny 84 28.7 58 14.5 42 42 S 39 63 29.35 994 10 16 0.00 0.00
6:55 pm 18:55 Sunny 82 28 58 14.7 44 44 S 44 70 29.35 994 7 11 0.00 0.00
7:15 pm 19:15 Sunny 81 27.1 59 14.8 47 47 S 36 57 29.35 994 7 11 0.00 0.00
7:35 pm 19:35 Sunny 79 26.2 59 14.8 50 50 S 33 54 29.34 994 10 16 0.00 0.00
7:55 pm 19:55 Sunny 78 25.5 58 14.7 51 51 S 33 54 29.33 993 10 16 0.00 0.00
8:15 pm 20:15 Sunny 77 25.1 58 14.5 52 52 S 36 57 29.35 994 10 16 0.00 0.00
8:35 pm 20:35 Clear 76 24.7 58 14.5 53 53 S 38 61 29.37 995 10 16 0.00 0.00
8:55 pm 20:55 Clear 76 24.4 58 14.7 55 55 S 37 59 29.37 995 10 16 0.00 0.00
9:15 pm 21:15 Partly Cloudy 75 24 59 15 57 57 SSE 35 56 29.38 995 10 16 0.00 0.00
9:35 pm 21:35 Partly Cloudy 74 23.5 59 15 59 59 S 40 65 29.36 994 10 16 0.00 0.00
9:55 pm 21:55 Mostly Cloudy 74 23.3 59 15.2 60 60 S 40 65 29.38 995 10 16 0.00 0.00
10:15 pm 22:15 Partly Cloudy 73 22.5 60 15.5 65 65 S 39 63 29.37 995 10 16 0.00 0.00
10:35 pm 22:35 Clear 72 22.4 60 15.5 65 65 S 36 57 29.37 995 10 16 0.00 0.00
10:55 pm 22:55 Partly Cloudy 72 22.4 60 15.3 64 64 S 32 52 29.37 995 10 16 0.00 0.00
11:15 pm 23:15 Mostly Cloudy 72 22 59 15.2 65 65 S 29 46 29.37 995 10 16 0.00 0.00
11:35 pm 23:35 Mostly Cloudy 73 22.7 57 14.1 58 58 S 33 54 29.36 994 10 16 0.00 0.00
11:55 pm 23:55 Partly Cloudy with Nearby Thunderstorms 73 22.5 59 15.2 63 63 S 43 69 29.36 994 7 11 0.00 0.00

Powered by AerisWeather